• Processing (Info)

  • MPEC 2002-C67 : 2002 CB19

    The following Minor Planet Electronic Circular may be linked-to from your own Web pages, but must not otherwise be redistributed electronically.

    A form allowing access to any MPEC is at the bottom of this page.


    Read MPEC 2002-C66 Read MPEC 2002-C68


    M.P.E.C. 2002-C67                                Issued 2002 Feb. 11, 20:15 UT
    
         The Minor Planet Electronic Circulars contain information on unusual
             minor planets and routine data on comets.  They are published
       on behalf of Commission 20 of the International Astronomical Union by the
              Minor Planet Center, Smithsonian Astrophysical Observatory,
                              Cambridge, MA 02138, U.S.A.
    
                 Prepared using the Tamkin Foundation Computer Network
    
                                  MPC@CFA.HARVARD.EDU
              URL http://cfa-www.harvard.edu/iau/mpc.html  ISSN 1523-6714
    
                                       2002 CB19
    
    Observations:
         K02C19B* C2002 02 07.31285 09 10 24.46 +16 37 10.3          19.5        704
         K02C19B  C2002 02 07.32729 09 10 13.11 +16 32 29.9          19.3        704
         K02C19B  C2002 02 07.34174 09 10 01.86 +16 27 49.8          19.4        704
         K02C19B  C2002 02 07.35615 09 09 50.71 +16 23 09.9          19.5        704
         K02C19B  C2002 02 07.37074 09 09 39.55 +16 18 28.3          19.5        704
         K02C19B  C2002 02 08.22955 09 01 08.40 +12 17 18.7          19.0        704
         K02C19B  C2002 02 08.22968 09 01 08.34 +12 17 16.9          19.3        704
         K02C19B  C2002 02 08.24381 09 01 00.23 +12 13 48.6          19.5        704
         K02C19B  C2002 02 08.24393 09 01 00.13 +12 13 47.3          19.8        704
         K02C19B  C2002 02 08.25812 09 00 52.00 +12 10 20.2          19.7        704
         K02C19B  C2002 02 08.25824 09 00 51.94 +12 10 17.8          19.9        704
         K02C19B  C2002 02 08.27238 09 00 43.81 +12 06 51.2          19.2        704
         K02C19B  C2002 02 08.27251 09 00 43.73 +12 06 49.9          19.5        704
         K02C19B  C2002 02 08.28678 09 00 35.67 +12 03 22.0          19.7        704
         K02C19B  C2002 02 08.28690 09 00 35.64 +12 03 20.5          19.8        704
         K02C19B  C2002 02 10.28372 08 47 47.53 +05 50 20.6          19.6 R      448
         K02C19B  C2002 02 10.29054 08 47 45.20 +05 49 22.6          19.2 R      448
         K02C19B  C2002 02 10.29537 08 47 43.63 +05 48 40.8          19.6 R      448
         K02C19B  C2002 02 10.30031 08 47 41.91 +05 47 58.2          19.4 R      448
    
    Observer details:
    448 Desert Moon Observatory.  Observer B. Stevens.  0.30-m f/6.3
        Schmidt-Cassegrain + CCD.
    704 Lincoln Laboratory ETS, New Mexico.  Observers M. Blythe, F. Shelly,
        M. Bezpalko, R. Huber, L. Manguso, S. Adams, J. Piscitelli.  Measurers
        J. Stuart, R. Sayer, J. B. Evans, H. Viggh.  1.0-m f/2.15 reflector + CCD.
    
    Orbital elements:
    2002 CB19
    Epoch 2001 Oct. 18.0 TT = JDT 2452200.5                 MPC
    M 325.03460              (2000.0)            P               Q
    n   0.67627250     Peri.   88.47615     +0.65629365     -0.72861811
    a   1.2854491      Node   318.22900     +0.52055279     +0.62524952
    e   0.4528548      Incl.   17.10614     +0.54617162     +0.27960452
    P   1.46           H   24.7           G   0.15           U   8
    Residuals in seconds of arc
    020207 704  1.2+  1.1-    020208 704  0.2+  0.7-    020208 704  0.5+  0.7+
    020207 704  0.4+  0.0     020208 704  0.2-  0.3-    020210 448  1.0+  0.1-
    020207 704  0.1+  0.7+    020208 704  0.2-  0.6+    020210 448  0.0   0.3+
    020207 704  0.4-  0.0     020208 704  0.1-  0.1-    020210 448  0.4+  0.1-
    020207 704  0.5-  0.0     020208 704  0.9-  0.1-    020210 448  0.9-  0.4-
    020208 704  0.0   0.2-    020208 704  0.9-  0.5+
    020208 704  0.2+  0.1-    020208 704  0.0   0.5+
    
    Ephemeris:
    2002 CB19                a,e,i = 1.29, 0.45, 17                  q = 0.7033
    Date    TT    R. A. (2000) Decl.     Delta      r     Elong.  Phase     V
    2002 02 05    09 58.58   +35 08.1    0.032    1.016   158.4    20.9    18.3
    2002 02 06    09 31.22   +25 28.2    0.038    1.024   169.8     9.8    18.3
    2002 02 07    09 14.41   +18 25.2    0.045    1.031   176.5     3.3    18.4
    2002 02 08    09 03.16   +13 17.0    0.053    1.039   174.2     5.5    18.8
    2002 02 09    08 55.16   +09 27.9    0.061    1.047   170.0     9.4    19.4
    2002 02 10    08 49.22   +06 33.4    0.069    1.054   166.5    12.6    19.8
    2002 02 11    08 44.65   +04 17.1    0.078    1.062   163.6    15.2    20.1
    2002 02 12    08 41.06   +02 28.6    0.087    1.070   161.2    17.3    20.5
    2002 02 13    08 38.18   +01 00.7    0.096    1.077   159.2    19.0    20.7
    2002 02 14    08 35.84   -00 11.7    0.105    1.085   157.4    20.5    21.0
    2002 02 15    08 33.92   -01 12.0    0.114    1.093   155.8    21.7    21.2
    2002 02 16    08 32.33   -02 02.8    0.123    1.100   154.4    22.8    21.5
    2002 02 17    08 31.02   -02 46.0    0.133    1.108   153.1    23.8    21.7
    2002 02 18    08 29.94   -03 22.9    0.142    1.116   151.9    24.6    21.8
    2002 02 19    08 29.05   -03 54.7    0.151    1.123   150.8    25.4    22.0
    2002 02 20    08 28.32   -04 22.2    0.161    1.131   149.8    26.1    22.2
    2002 02 21    08 27.73   -04 46.2    0.170    1.138   148.8    26.7    22.3
    2002 02 22    08 27.27   -05 07.1    0.180    1.146   147.9    27.3    22.5
    2002 02 23    08 26.91   -05 25.3    0.190    1.153   147.0    27.9    22.6
    2002 02 24    08 26.65   -05 41.4    0.200    1.161   146.1    28.4    22.8
    2002 02 25    08 26.48   -05 55.4    0.209    1.168   145.3    28.9    22.9
    
    Timothy B. Spahr             (C) Copyright 2002 MPC           M.P.E.C. 2002-C67
    

    Read MPEC 2002-C66 Read MPEC 2002-C68


    MPEC number:

    Enter an MPEC number in one of the following forms:

    • 1997-B01 (the full form)
    • J97B01 (the packed version of the full form)
    • B01 (the abbreviated form)